Location: Unspecified
(42.7170°S, 0.0000°E)
Time: 01:30:14
(UTC+00:00)

N. Korean satellite - Pass Details

Date: 27 May 2019
Orbit: 455 x 510 km, 97.2° (Epoch: 14 June)

Event Time Altitude Azimuth Distance (km) Brightness Sun altitude
Exits shadow 18:39:28 11° 186° (S) 1,661 9.2 -21.9°
Maximum altitude 18:42:45 37° 252° (WSW) 807 8.1 -22.5°
Drops below altitude 10° 18:46:14 10° 320° (NW) 1,735 10.0 -23.1°
Sets 18:48:24 0° 328° (NNW) 2,616 10.8 -23.5°
